* Astronomy

Members Login
Username 
 
Password 
    Remember Me  
Post Info TOPIC: Asteroid 2012 BZ61


L

Posts: 131433
Date:
Asteroid 2012 BZ61
Permalink  
 


Orbital elements:
2012 BZ61                                                Earth MOID = 0.0998 AU
Epoch 2012 Mar. 14.0 TT = JDT 2456000.5                 MPC
M  22.34998              (2000.0)            P               Q
n   0.32852681     Peri.  158.85867     -0.24433704     -0.95174137
a   2.0801222      Node   304.83087     +0.85405992     -0.12052237
e   0.4863350      Incl.   13.07592     +0.45921788     -0.28224584
P   3.00           H   26.0           G   0.15           U   8

MPEC 2012 - B74



__________________
Page 1 of 1  sorted by
 
Quick Reply

Please log in to post quick replies.



Create your own FREE Forum
Report Abuse
Powered by ActiveBoard